Location: Angwan Shehu
(11.2514°N, 7.4613°E)
Time: 01:09:53
(UTC+00:00)

Tiros 1 - Pass Details

Date: 23 April 2021
Orbit: 630 x 664 km, 48.4° (Epoch: 06 May)

Event Time Altitude Azimuth Distance (km) Brightness Sun altitude
Rises 14:34:47 0° 340° (NNW) 2,903 10.8 44.5°
Reaches altitude 10° 14:37:33 10° 356° (N) 1,998 9.9 43.8°
Maximum altitude 14:41:05 22° 46° (NE) 1,388 8.8 42.9°
Drops below altitude 10° 14:44:38 10° 97° (E) 2,008 9.3 42.1°
Sets 14:47:25 0° 113° (ESE) 2,922 10.1 41.4°
